• In Moldova, Republic
  • List of Countries
  • For 7 days
  • Water Temperature
  • Satellite Maps
  • Weather Map
  • Weather Widgets
  • user-avatar
    Login

    Hourly Weather Salzburg

    Today, 31 March, Friday

    Time Temperature Precipitation Wind Pressure Humidity
    00:00 +2°C° 0 mm 2 mps 630 mmHg 91%
    01:00 +1°C° 0 mm 2 mps 630 mmHg 90%
    02:00 +1°C° 0 mm 2 mps 629 mmHg 90%
    03:00 +1°C° 0 mm 2 mps 629 mmHg 90%
    04:00 +1°C° 0 mm 2 mps 629 mmHg 90%
    05:00 +1°C° 0 mm 2 mps 629 mmHg 90%
    06:00 +2°C° 0 mm 2 mps 629 mmHg 89%
    07:00 +2°C° 0 mm 2 mps 629 mmHg 89%
    08:00 +5°C° 0 mm 2 mps 630 mmHg 82%
    09:00 +7°C° 0 mm 2 mps 630 mmHg 75%
    10:00 +9°C° 0 mm 2 mps 631 mmHg 69%
    11:00 +12°C° 0 mm 1 mps 631 mmHg 64%
    12:00 +13°C° 0 mm 1 mps 631 mmHg 59%
    13:00 +14°C° 0 mm 1 mps 631 mmHg 55%
    14:00 +13°C° 0 mm 2 mps 630 mmHg 57%
    15:00 +13°C° 0 mm 2 mps 630 mmHg 60%
    16:00 +13°C° 0 mm 2 mps 629 mmHg 62%
    17:00 +9°C° 0 mm 2 mps 628 mmHg 72%
    18:00 +7°C° 0 mm 2 mps 627 mmHg 82%
    19:00 +5°C° 0 mm 2 mps 626 mmHg 92%
    20:00 +4°C° 0 mm 2 mps 626 mmHg 92%
    21:00 +4°C° 0 mm 2 mps 625 mmHg 92%
    22:00 +3°C° 0 mm 2 mps 625 mmHg 92%
    23:00 +3°C° 0 mm 2 mps 625 mmHg 92%

    Tomorrow, 1 April, Saturday

    Time Temperature Precipitation Wind Pressure Humidity
    00:00 +2°C° 0 mm 2 mps 625 mmHg 91%
    01:00 +2°C° 0 mm 2 mps 624 mmHg 91%
    02:00 +2°C° 0 mm 2 mps 624 mmHg 92%
    03:00 +2°C° 0 mm 2 mps 624 mmHg 92%
    04:00 +1°C° 0 mm 2 mps 623 mmHg 92%
    05:00 +2°C° 0 mm 2 mps 623 mmHg 91%
    06:00 +2°C° 0 mm 2 mps 623 mmHg 90%
    07:00 +2°C° 0 mm 2 mps 623 mmHg 88%
    08:00 +4°C° 0 mm 2 mps 624 mmHg 81%
    09:00 +6°C° 0 mm 2 mps 625 mmHg 73%
    10:00 +8°C° 0 mm 2 mps 625 mmHg 65%
    11:00 +9°C° 0 mm 2 mps 625 mmHg 61%
    12:00 +10°C° 0 mm 2 mps 625 mmHg 58%
    13:00 +12°C° 0 mm 2 mps 625 mmHg 54%
    14:00 +12°C° 0.2 mm 2 mps 625 mmHg 57%
    15:00 +12°C° 0.2 mm 2 mps 625 mmHg 59%
    16:00 +10°C° 0.2 mm 2 mps 624 mmHg 62%
    17:00 +8°C° 0.3 mm 2 mps 624 mmHg 72%
    18:00 +5°C° 0.3 mm 2 mps 623 mmHg 82%
    19:00 +4°C° 0.3 mm 1 mps 622 mmHg 91%
    20:00 +3°C° 0.1 mm 2 mps 623 mmHg 92%
    21:00 +2°C° 0.1 mm 2 mps 623 mmHg 92%
    22:00 +2°C° 0.1 mm 2 mps 623 mmHg 92%
    23:00 +1°C° 0 mm 2 mps 623 mmHg 92%

    Day after tomorrow, 2 April, Sunday

    Time Temperature Precipitation Wind Pressure Humidity
    00:00 +1°C° 0 mm 2 mps 623 mmHg 92%
    01:00 -1°C° 0 mm 2 mps 623 mmHg 93%
    02:00 -1°C° 0 mm 2 mps 623 mmHg 93%
    03:00 0°C° 0 mm 1 mps 623 mmHg 93%
    04:00 0°C° 0 mm 1 mps 623 mmHg 93%
    05:00 0°C° 0 mm 1 mps 623 mmHg 88%
    06:00 +1°C° 0 mm 1 mps 624 mmHg 84%
    07:00 +2°C° 0 mm 1 mps 625 mmHg 79%
    08:00 +4°C° 0 mm 1 mps 625 mmHg 73%
    09:00 +6°C° 0 mm 1 mps 626 mmHg 67%
    10:00 +8°C° 0 mm 1 mps 627 mmHg 60%
    11:00 +9°C° 0 mm 1 mps 627 mmHg 59%
    12:00 +8°C° 0 mm 2 mps 627 mmHg 58%
    13:00 +9°C° 0 mm 2 mps 628 mmHg 56%
    14:00 +9°C° 0 mm 2 mps 627 mmHg 61%
    15:00 +8°C° 0 mm 2 mps 627 mmHg 65%
    16:00 +8°C° 0 mm 2 mps 627 mmHg 69%
    17:00 +7°C° 0.1 mm 1 mps 626 mmHg 78%
    18:00 +6°C° 0.1 mm 1 mps 626 mmHg 87%
    19:00 +4°C° 0.1 mm 1 mps 626 mmHg 95%
    20:00 +4°C° 0 mm 1 mps 626 mmHg 96%
    21:00 +4°C° 0 mm 1 mps 627 mmHg 96%
    22:00 +4°C° 0 mm 1 mps 627 mmHg 96%
    23:00 +4°C° 0 mm 1 mps 627 mmHg 97%

    3 April, Monday

    Time Temperature Precipitation Wind Pressure Humidity
    00:00 +4°C° 0 mm 1 mps 627 mmHg 97%
    01:00 +4°C° 0 mm 1 mps 627 mmHg 97%
    02:00 +4°C° 0.1 mm 1 mps 627 mmHg 97%
    03:00 +4°C° 0.1 mm 1 mps 627 mmHg 97%
    04:00 +3°C° 0.1 mm 1 mps 627 mmHg 97%
    05:00 +4°C° 0.1 mm 1 mps 628 mmHg 96%
    06:00 +4°C° 0.1 mm 1 mps 628 mmHg 96%
    07:00 +4°C° 0.1 mm 1 mps 628 mmHg 95%
    08:00 +5°C° 0.1 mm 1 mps 628 mmHg 90%
    09:00 +6°C° 0.1 mm 1 mps 629 mmHg 85%
    10:00 +6°C° 0.1 mm 1 mps 629 mmHg 80%
    11:00 +6°C° 0.2 mm 2 mps 629 mmHg 79%
    12:00 +6°C° 0.2 mm 2 mps 629 mmHg 79%
    13:00 +6°C° 0.2 mm 2 mps 629 mmHg 79%
    14:00 +6°C° 0.4 mm 2 mps 629 mmHg 80%
    15:00 +6°C° 0.4 mm 2 mps 628 mmHg 82%
    16:00 +6°C° 0.4 mm 2 mps 628 mmHg 84%
    17:00 +5°C° 0.6 mm 2 mps 628 mmHg 88%
    18:00 +4°C° 0.6 mm 1 mps 628 mmHg 92%
    19:00 +3°C° 0.6 mm 1 mps 627 mmHg 96%
    20:00 +3°C° 0.4 mm 1 mps 628 mmHg 96%
    21:00 +3°C° 0.4 mm 1 mps 628 mmHg 97%
    22:00 +3°C° 0.4 mm 1 mps 628 mmHg 97%
    23:00 +2°C° 0.2 mm 1 mps 628 mmHg 97%

    4 April, Tuesday

    Time Temperature Precipitation Wind Pressure Humidity
    00:00 +2°C° 0.2 mm 1 mps 628 mmHg 97%
    01:00 +2°C° 0.2 mm 1 mps 628 mmHg 97%
    02:00 +2°C° 0.2 mm 1 mps 627 mmHg 97%
    03:00 -1°C° 0.2 mm 2 mps 627 mmHg 97%
    04:00 -1°C° 0.2 mm 2 mps 627 mmHg 97%
    05:00 -1°C° 0.2 mm 2 mps 627 mmHg 96%
    06:00 -1°C° 0.2 mm 2 mps 627 mmHg 95%
    07:00 -1°C° 0.2 mm 2 mps 627 mmHg 94%
    08:00 -1°C° 0.2 mm 2 mps 627 mmHg 89%
    09:00 +1°C° 0.2 mm 2 mps 628 mmHg 83%
    10:00 +2°C° 0.2 mm 2 mps 628 mmHg 78%
    11:00 +2°C° 0.1 mm 2 mps 628 mmHg 75%
    12:00 +2°C° 0.1 mm 3 mps 628 mmHg 71%
    13:00 +2°C° 0.1 mm 3 mps 628 mmHg 68%
    14:00 +2°C° 0.1 mm 3 mps 628 mmHg 69%
    15:00 +2°C° 0.1 mm 3 mps 628 mmHg 70%
    16:00 +3°C° 0.1 mm 2 mps 628 mmHg 70%
    17:00 +1°C° 0.1 mm 2 mps 627 mmHg 77%
    18:00 -1°C° 0.1 mm 2 mps 627 mmHg 85%
    19:00 -1°C° 0.1 mm 1 mps 627 mmHg 92%
    20:00 -3°C° 0.1 mm 2 mps 627 mmHg 92%
    21:00 -3°C° 0.1 mm 2 mps 628 mmHg 93%
    22:00 -3°C° 0.1 mm 2 mps 628 mmHg 94%
    23:00 -3°C° 0.2 mm 2 mps 628 mmHg 94%

    5 April, Wednesday

    Time Temperature Precipitation Wind Pressure Humidity
    00:00 -3°C° 0.2 mm 2 mps 628 mmHg 93%
    01:00 -3°C° 0.2 mm 2 mps 628 mmHg 93%
    02:00 -3°C° 0.2 mm 2 mps 628 mmHg 94%
    03:00 -3°C° 0.2 mm 2 mps 627 mmHg 95%
    04:00 -3°C° 0.2 mm 2 mps 627 mmHg 95%
    05:00 -3°C° 0.2 mm 2 mps 628 mmHg 93%
    06:00 -3°C° 0.2 mm 2 mps 628 mmHg 92%
    07:00 -2°C° 0.2 mm 2 mps 628 mmHg 90%
    08:00 -2°C° 0.4 mm 2 mps 628 mmHg 86%
    09:00 -1°C° 0.4 mm 2 mps 629 mmHg 83%
    10:00 +1°C° 0.4 mm 2 mps 629 mmHg 80%
    11:00 +2°C° 0.2 mm 2 mps 629 mmHg 78%
    12:00 +2°C° 0.2 mm 2 mps 628 mmHg 75%
    13:00 +3°C° 0.2 mm 2 mps 628 mmHg 73%
    14:00 +3°C° 0.1 mm 2 mps 628 mmHg 75%
    15:00 +3°C° 0.1 mm 2 mps 628 mmHg 76%
    16:00 +3°C° 0.1 mm 2 mps 628 mmHg 78%
    17:00 +2°C° 0.5 mm 2 mps 627 mmHg 84%
    18:00 +1°C° 0.5 mm 2 mps 627 mmHg 89%
    19:00 -1°C° 0.5 mm 2 mps 627 mmHg 95%
    20:00 -1°C° 1.4 mm 2 mps 627 mmHg 95%
    21:00 -1°C° 1.4 mm 2 mps 627 mmHg 95%
    22:00 -1°C° 1.4 mm 2 mps 627 mmHg 96%
    23:00 -2°C° 1.2 mm 2 mps 627 mmHg 96%
    Show more